Estación de El Cardal INIA

Ultimos registro cada 15 minutos 43
Estación Fecha / Hora Temperatura Humedad Lluvia Velocidad Dirección Radiación Presion
43 El Cardal INIA 04-05-2026 10:30 10,5 90 0 2,2 27 43 1004
42 El Cardal INIA 04-05-2026 10:15 10,3 90,8 0 1,7 22 33 1004
41 El Cardal INIA 04-05-2026 10:00 10,2 91,6 0 1,9 29 38 1004
40 El Cardal INIA 04-05-2026 09:45 10,1 91,8 0 0,5 29 30 1004
39 El Cardal INIA 04-05-2026 09:30 10 92,1 0 2 28 26 1004
38 El Cardal INIA 04-05-2026 09:15 9,9 92,9 0 1,9 31 21 1004
37 El Cardal INIA 04-05-2026 09:00 9,7 94,2 0 2 30 21 1004
36 El Cardal INIA 04-05-2026 08:45 9,7 94,7 0 1,3 40 16 1004
35 El Cardal INIA 04-05-2026 08:30 9,6 94,8 0 1,5 29 8 1004
34 El Cardal INIA 04-05-2026 08:15 9,6 94,7 0 2,6 21 4 1004
33 El Cardal INIA 04-05-2026 08:00 9,6 95,3 0 2,8 23 2 1004
32 El Cardal INIA 04-05-2026 07:45 9,6 95,5 0,1 2,7 31 1 1004
31 El Cardal INIA 04-05-2026 07:30 9,6 94,7 0 0,8 33 0 1004
30 El Cardal INIA 04-05-2026 07:15 9,6 94,8 0 0,7 25 0 1004
29 El Cardal INIA 04-05-2026 07:00 9,5 95,5 0 0,5 18 0 1004
28 El Cardal INIA 04-05-2026 06:45 9,6 94,9 0 2,3 24 0 1004
27 El Cardal INIA 04-05-2026 06:30 9,4 95,9 0 1,9 25 0 1003
26 El Cardal INIA 04-05-2026 06:15 9,4 96,1 0 1,9 19 0 1004
25 El Cardal INIA 04-05-2026 06:00 9,4 96,8 0 2 30 0 1004
24 El Cardal INIA 04-05-2026 05:45 9,3 97,1 0 1,6 38 0 1004
23 El Cardal INIA 04-05-2026 05:30 9,4 96,5 0,1 2,2 31 0 1004
22 El Cardal INIA 04-05-2026 05:15 9,4 96,1 0,1 2,1 28 0 1004
21 El Cardal INIA 04-05-2026 05:00 9,4 95,1 0 0 23 0 1004
20 El Cardal INIA 04-05-2026 04:45 9,2 95,2 0,1 0 34 0 1004
19 El Cardal INIA 04-05-2026 04:30 9,1 95 0 0,4 45 0 1004
18 El Cardal INIA 04-05-2026 04:15 9,1 95,3 0 0 0 0 1005
17 El Cardal INIA 04-05-2026 04:00 9 95,7 0 0,1 22 0 1005
16 El Cardal INIA 04-05-2026 03:45 9,1 95,8 0 0 0 0 1005
15 El Cardal INIA 04-05-2026 03:30 9,4 95,5 0 0 0 0 1005
14 El Cardal INIA 04-05-2026 03:15 9,6 95,3 0 0,5 14 0 1005
13 El Cardal INIA 04-05-2026 03:00 9,5 95,3 0 1,9 20 0 1005
12 El Cardal INIA 04-05-2026 02:45 9,4 96,6 0 0,7 35 0 1005
11 El Cardal INIA 04-05-2026 02:30 9,2 97,1 0 0,1 44 0 1005
10 El Cardal INIA 04-05-2026 02:15 9 97,4 0 0 0 0 1005
9 El Cardal INIA 04-05-2026 02:00 9,1 97 0 0 0 0 1005
8 El Cardal INIA 04-05-2026 01:45 9,4 96,7 0 0 0 0 1006
7 El Cardal INIA 04-05-2026 01:30 9,5 96,6 0,1 0 0 0 1006
6 El Cardal INIA 04-05-2026 01:15 9,6 96 0 0 0 0 1006
5 El Cardal INIA 04-05-2026 01:00 9,6 95,7 0 0 0 0 1006
4 El Cardal INIA 04-05-2026 00:45 9,6 95,5 0 0 0 0 1006
3 El Cardal INIA 04-05-2026 00:30 9,6 95,5 0 0 0 0 1006
2 El Cardal INIA 04-05-2026 00:15 9,6 95,8 0 0 0 0 1006
1 El Cardal INIA 04-05-2026 00:00 9,6 95,3 0 0 0 0 1006